Location: Nordegg
(52.4712°N, 116.0743°W)
Time: 14:54:54
(UTC+00:00)

Envisat - Pass Details

Date: 03 December 2021
Orbit: 764 x 766 km, 98.2° (Epoch: 26 January)

Event Time Altitude Azimuth Distance (km) Brightness Sun altitude
Rises 12:47:38 0° 16° (NNE) 3,248 6.4 -24.4°
Reaches altitude 10° 12:49:58 10° 18° (NNE) 2,317 5.6 -24.0°
Maximum altitude 12:55:04 71° 103° (ESE) 812 3.2 -23.3°
Drops below altitude 10° 13:00:08 10° 188° (S) 2,299 5.5 -22.5°
Sets 13:02:26 0° 190° (S) 3,220 6.2 -22.2°
